ATLAS 5 CENTAUR DEB, 46601

Orbit data source: Space-Track

ATLAS 5 CENTAUR DEB, 46601 is space debris in HEO originally from a launch on Wed, 17 Oct 2018 UTC launched from the Air Force Eastern Test Range (AFETR). Debris objects in space refer to the collection of defunct objects orbiting the Earth. Examples of debris include non-operational satellites, rocket bodies, and fragments generated from explosions, collisions, or faulty payload assembly.

Loading next visibility...
Identifier
46601, 2018-079BZ
Orbit
HEO
Country
Flag of USUS
Related business
Flag of USUnited Launch Alliance/Lockheed Martin (US)
Manufacturer
ULA Decatur
Mission
Spacecraft
Bus & Motor
Unknown
Mass
Unknown
Launch date (UTC)
2018-10-17 (7 years ago)
Launch vehicle
Unknown
Launch site
Air Force Eastern Test Range (AFETR)
Object type
Payload
Rocket body
Debris
Shape & HBR
Unknown shape, 1.1 m
Radar Cross Section
RCS unknown

Expand to show TLE details & history
Last TLE update: 2 days ago

TLE from 2 days ago
0 ATLAS 5 CENTAUR DEB
1 46601U 18079BZ  26034.47170681 -.00000169  00000-0  00000-0 0  9998
2 46601  12.7927  48.5143 4626309 295.0564  24.2586  1.85795692 39015
Epoch: 2026-02-03T11:19Z
TLE epoch observation values (Epoch: 2026-02-03T11:19:15.468Z)
Latitude
-0.00002°
Longitude
105.13539°
Altitude
11,994.657 km
Speed
5.397 km/s
True Right ascension
03h 14m 24s
True Declination
0° 00' 00"
Sunlit
Object was in daylight at epoch
Visualization orbit readout
Latitude
Unknown
Longitude
Unknown
Altitude
Unknown
Speed
Unknown
Apparent Right ascension
Unknown
Apparent Declination
Unknown
Sunlit
N/A
Visualization observer readout
Local Sidereal Time
21:19:34
Azimuth
Unknown
Elevation
Unknown
Doppler factor
Unknown
Orbital elements
Apogee altitude
34,505.135 km
Perigee altitude
8,642.335 km
Semi-major axis
27,951.872 km
Eccentricity
0.46263
Inclination
12.7927°
RAAN
48.5143°
Arg. of periapsis
295.0564°
True anomaly
64.68197°
Mean anomaly
24.2586°
Eccentric anomaly
41.99255°
Mean motion
0.46444 °/min
Orbital period
775.13 mins
BSTAR
0
Loading maneuver chart data...
Computing Atmospheric mass density...

Documentation

Showing up to 5 results
|